User: anonymous   Login
Location: Caltech
(34.1382°N, 118.1253°W)
Time: 18:13:44
(UTC-07:00)
Language:

Cosmos 1606 - Orbit

View from above orbital plane
View from above orbital plane
View from above satellite
View from above satellite

Ground track
Ground track

The orbit data is extracted from the following two-line orbital elements,

1 15369U 84111A   17144.54869866 +.00001098 +00000-0 +56047-4 0  9992
2 15369 082.5262 145.8230 0017410 345.7426 014.3312 15.15539146776888
Epoch (UTC): 24 May 2017 13:10:07
Eccentricity: 0.0017410
inclination: 82.5262°
perigee height: 507 km
apogee height: 531 km
right ascension of ascending node: 145.8230°
argument of perigee: 345.7426°
revolutions per day: 15.15539146
mean anomaly at epoch: 14.3312°
orbit number at epoch: 77688

The dashed part of the orbit path shows where the satellite is in the earth's shadow,  

DLR